Weather History for Novato, CA

Change the Weather History Date:

Wednesday, June 26, 2013

  Actual Average (KAPC) Record (KAPC)
Temperature  
Mean Temperature 71 °F 66 °F  
Max Temperature 82 °F 80 °F 101 °F (1973)
Min Temperature 60 °F 52 °F 41 °F (1998)
Degree Days  
Heating Degree Days 0    
Month to date heating degree days  
Since 1 June heating degree days  
Since 1 July heating degree days  
Cooling Degree Days 6    
Month to date cooling degree days  
Year to date cooling degree days  
Since 1 June cooling degree days  
Growing Degree Days 21 (Base 50)    
Moisture  
Dew Point 63 °F    
Average Humidity 80    
Maximum Humidity 100    
Minimum Humidity 48    
Precipitation  
Precipitation 0.00 in - 0.00 in (2014)
Month to date precipitation  
Year to date precipitation  
Since 1 July precipitation  
Sea Level Pressure  
Sea Level Pressure 30.02 in    
Wind  
Wind Speed 3 mph (NW)    
Max Wind Speed 14 mph    
Max Gust Speed 18 mph    
Visibility 10 miles    
Events Rain    
T = Trace of Precipitation, MM = Missing Value Source: NWS Daily Summary

Daily Weather History Graph

Daily Weather History Graph

Search for Another Location

Airport:

Trip Planner

Search our weather history database for the weather conditions in past years. The results will help you decide how hot, cold, wet, or windy it might be!

Date:

Astronomy

Jun. 26, 2013 Rise Set
Actual Time 5:48 AM PDT 8:37 PM PDT
Civil Twilight 5:17 AM PDT 9:08 PM PDT
Nautical Twilight 4:37 AM PDT 9:48 PM PDT
Astronomical Twilight 3:52 AM PDT 10:33 PM PDT
Moon 11:07 PM PDT (6/26) 9:43 AM PDT (6/26)
Length of Visible Light 15h 51m
Length of Day
14h 48m
Waning Gibbous, 84% of the Moon is Illuminated
Jun 26
Waning Gibbous
Jun 29
Last Quarter
Jul 8
New
Jul 15
First Quarter
Jul 22
Full

Hourly Weather History & Observations

Time (PDT) Temp. Heat Index Dew Point Humidity Pressure Visibility Wind Dir Wind Speed Gust Speed Precip Events Conditions
12:15 AM 62.6 °F - 62.6 °F 100% 29.99 in 10.0 mi SSE 4.6 mph - N/A   Overcast
12:35 AM 64.4 °F - 64.4 °F 100% 29.99 in 10.0 mi Calm Calm - N/A   Overcast
12:55 AM 64.4 °F - 64.4 °F 100% 29.99 in 10.0 mi Calm Calm - N/A   Overcast
1:15 AM 62.6 °F - 62.6 °F 100% 29.98 in 10.0 mi Calm Calm - N/A   Overcast
1:35 AM 62.6 °F - 62.6 °F 100% 29.98 in 10.0 mi Calm Calm - N/A   Overcast
1:55 AM 62.6 °F - 62.6 °F 100% 29.98 in 10.0 mi Calm Calm - N/A   Overcast
2:15 AM 62.6 °F - 62.6 °F 100% 29.98 in 10.0 mi Calm Calm - N/A   Overcast
2:35 AM 62.6 °F - 62.6 °F 100% 29.99 in 10.0 mi Calm Calm - N/A   Overcast
2:55 AM 62.6 °F - 62.6 °F 100% 29.99 in 10.0 mi Calm Calm - N/A   Overcast
3:15 AM 62.6 °F - 62.6 °F 100% 29.99 in 10.0 mi Calm Calm - N/A   Overcast
3:35 AM 62.6 °F - 62.6 °F 100% 29.99 in 10.0 mi Calm Calm - N/A   Overcast
3:55 AM 62.6 °F - 62.6 °F 100% 29.99 in 10.0 mi Calm Calm - N/A   Overcast
4:15 AM 62.6 °F - 62.6 °F 100% 29.99 in 10.0 mi Calm Calm - N/A   Overcast
4:35 AM 62.6 °F - 62.6 °F 100% 30.00 in 10.0 mi Calm Calm - N/A   Overcast
4:55 AM 62.6 °F - 62.6 °F 100% 30.00 in 10.0 mi Calm Calm - N/A   Overcast
5:15 AM 62.6 °F - 62.6 °F 100% 30.00 in 10.0 mi Calm Calm - N/A   Overcast
5:35 AM 62.6 °F - 62.6 °F 100% 30.01 in 10.0 mi North - - N/A   Overcast
5:55 AM 60.8 °F - 60.8 °F 100% 30.01 in 10.0 mi Calm Calm - N/A   Overcast
6:15 AM 62.6 °F - 62.6 °F 100% 30.02 in 10.0 mi Calm Calm - N/A   Overcast
6:35 AM 62.6 °F - 62.6 °F 100% 30.03 in 10.0 mi Calm Calm - N/A   Overcast
6:55 AM 62.6 °F - 62.6 °F 100% 30.03 in 10.0 mi Calm Calm - N/A   Overcast
7:15 AM 64.4 °F - 64.4 °F 100% 30.03 in 10.0 mi Calm Calm - N/A   Overcast
7:55 AM 64.4 °F - 64.4 °F 100% 30.04 in 10.0 mi Calm Calm - N/A   Overcast
8:15 AM 66.2 °F - 66.2 °F 100% 30.04 in 10.0 mi South 3.5 mph - N/A   Overcast
8:35 AM 66.2 °F - 66.2 °F 100% 30.04 in 10.0 mi Calm Calm - N/A   Overcast
8:55 AM 68.0 °F - 64.4 °F 88% 30.05 in 10.0 mi Calm Calm - N/A   Overcast
9:15 AM 68.0 °F - 64.4 °F 88% 30.05 in 10.0 mi South 3.5 mph - N/A   Scattered Clouds
9:35 AM 69.8 °F - 64.4 °F 83% 30.05 in 10.0 mi WSW 5.8 mph - N/A   Mostly Cloudy
9:55 AM 69.8 °F - 64.4 °F 83% 30.05 in 10.0 mi South 4.6 mph - N/A   Overcast
10:15 AM 71.6 °F - 64.4 °F 78% 30.05 in 10.0 mi ENE 3.5 mph - N/A   Overcast
10:35 AM 71.6 °F - 64.4 °F 78% 30.05 in 10.0 mi Calm Calm - N/A   Overcast
10:55 AM 73.4 °F - 64.4 °F 73% 30.05 in 10.0 mi NE 3.5 mph - N/A   Overcast
11:15 AM 73.4 °F - 64.4 °F 73% 30.05 in 10.0 mi North 3.5 mph - N/A   Overcast
11:35 AM 73.4 °F - 64.4 °F 73% 30.05 in 10.0 mi NNW 6.9 mph - N/A   Overcast
11:55 AM 73.4 °F - 64.4 °F 73% 30.05 in 10.0 mi North 8.1 mph - N/A   Overcast
12:15 PM 75.2 °F - 66.2 °F 73% 30.05 in 10.0 mi NNE 10.4 mph - N/A   Overcast
12:35 PM 75.2 °F - 66.2 °F 73% 30.05 in 10.0 mi NW 5.8 mph - N/A   Mostly Cloudy
12:55 PM 77.0 °F - 64.4 °F 65% 30.05 in 10.0 mi NNW 6.9 mph - N/A   Mostly Cloudy
1:15 PM 78.8 °F - 64.4 °F 61% 30.05 in 10.0 mi North 6.9 mph - N/A   Scattered Clouds
1:35 PM 77.0 °F - 62.6 °F 61% 30.04 in 10.0 mi SSW 6.9 mph - N/A   Mostly Cloudy
1:55 PM 80.6 °F 82.3 °F 64.4 °F 58% 30.04 in - NW 4.6 mph - N/A   Scattered Clouds
2:15 PM 78.8 °F - 62.6 °F 57% 30.04 in - WSW 5.8 mph - N/A Rain Light Rain
2:35 PM 80.6 °F 82.3 °F 64.4 °F 58% 30.03 in - SE 5.8 mph - N/A   Mostly Cloudy
2:55 PM 80.6 °F 82.3 °F 64.4 °F 58% 30.03 in - NNW 13.8 mph - N/A   Mostly Cloudy
3:15 PM 80.6 °F 82.3 °F 64.4 °F 58% 30.03 in - NNW 13.8 mph - N/A   Mostly Cloudy
3:35 PM 77.0 °F - 64.4 °F 65% 30.03 in - NNW 10.4 mph - N/A   Mostly Cloudy
3:55 PM 80.6 °F 82.3 °F 64.4 °F 58% 30.02 in 10.0 mi NW 10.4 mph - N/A   Overcast
4:15 PM 80.6 °F 81.8 °F 62.6 °F 54% 30.01 in 10.0 mi NW 11.5 mph - N/A   Mostly Cloudy
4:35 PM 82.4 °F 83.4 °F 62.6 °F 51% 30.01 in 10.0 mi West 8.1 mph - N/A   Partly Cloudy
4:55 PM 82.4 °F 82.9 °F 60.8 °F 48% 30.01 in 10.0 mi NW 9.2 mph 17.3 mph N/A   Clear
5:15 PM 80.6 °F 81.8 °F 62.6 °F 54% 30.01 in 10.0 mi NW 11.5 mph 17.3 mph N/A   Clear
5:35 PM 80.6 °F 81.8 °F 62.6 °F 54% 30.00 in 10.0 mi NNW 11.5 mph 18.4 mph N/A   Clear
5:55 PM 80.6 °F 81.8 °F 62.6 °F 54% 30.00 in 10.0 mi NW 12.7 mph - N/A   Clear
6:15 PM 78.8 °F - 60.8 °F 54% 30.00 in 10.0 mi NNW 11.5 mph - N/A   Clear
6:35 PM 78.8 °F - 60.8 °F 54% 30.00 in 10.0 mi NW 9.2 mph - N/A   Clear
6:55 PM 77.0 °F - 60.8 °F 57% 30.00 in 10.0 mi NW 8.1 mph - N/A   Clear
7:15 PM 77.0 °F - 60.8 °F 57% 30.00 in 10.0 mi NW 5.8 mph - N/A   Clear
7:35 PM 75.2 °F - 59.0 °F 57% 30.00 in 10.0 mi West 6.9 mph - N/A   Clear
7:55 PM 75.2 °F - 59.0 °F 57% 30.00 in 10.0 mi WSW 8.1 mph - N/A   Clear
8:15 PM 73.4 °F - 59.0 °F 61% 30.00 in 10.0 mi WSW 5.8 mph - N/A   Clear
8:35 PM 71.6 °F - 59.0 °F 64% 30.01 in 10.0 mi WSW 3.5 mph - N/A   Clear
8:55 PM 71.6 °F - 59.0 °F 64% 30.01 in 10.0 mi West 3.5 mph - N/A   Clear
9:15 PM 68.0 °F - 59.0 °F 73% 30.02 in 10.0 mi NNE 6.9 mph - N/A   Clear
9:35 PM 66.2 °F - 60.8 °F 83% 30.02 in 10.0 mi North 9.2 mph - N/A   Clear
9:55 PM 64.4 °F - 62.6 °F 94% 30.03 in 10.0 mi NNE 10.4 mph - N/A   Clear
10:15 PM 64.4 °F - 62.6 °F 94% 30.04 in 10.0 mi NE 4.6 mph - N/A   Clear
10:35 PM 64.4 °F - 64.4 °F 100% 30.05 in 10.0 mi NE 4.6 mph - N/A   Clear
11:15 PM 62.6 °F - 62.6 °F 100% 30.05 in 10.0 mi North 4.6 mph - N/A   Clear
11:35 PM 62.6 °F - 62.6 °F 100% 30.06 in 10.0 mi North 5.8 mph - N/A   Clear
11:55 PM 62.6 °F - 62.6 °F 100% 30.06 in 10.0 mi North 4.6 mph - N/A   Clear